Hourly Weather Gogolin

Today, 15 May, Saturday

Time Temperature Precipitation Wind Pressure Humidity
00:00 +11°C° 0 mm 3 mps 749 mmHg 94%
01:00 +11°C° 0 mm 3 mps 749 mmHg 94%
02:00 +11°C° 0 mm 3 mps 750 mmHg 94%
03:00 +11°C° 0 mm 3 mps 750 mmHg 94%
04:00 +10°C° 0 mm 3 mps 750 mmHg 94%
05:00 +10°C° 0 mm 3 mps 750 mmHg 93%
06:00 +10°C° 0 mm 4 mps 750 mmHg 93%
07:00 +10°C° 0 mm 4 mps 751 mmHg 92%
08:00 +11°C° 0 mm 4 mps 751 mmHg 87%
09:00 +12°C° 0 mm 4 mps 751 mmHg 81%
10:00 +13°C° 0 mm 4 mps 751 mmHg 76%
11:00 +14°C° 0 mm 4 mps 751 mmHg 67%
12:00 +17°C° 0 mm 4 mps 751 mmHg 59%
13:00 +19°C° 0 mm 3 mps 751 mmHg 50%
14:00 +19°C° 0 mm 3 mps 751 mmHg 50%
15:00 +19°C° 0 mm 3 mps 751 mmHg 50%
16:00 +19°C° 0 mm 3 mps 751 mmHg 50%
17:00 +18°C° 0 mm 3 mps 751 mmHg 58%
18:00 +16°C° 0 mm 2 mps 750 mmHg 66%
19:00 +15°C° 0 mm 2 mps 750 mmHg 74%
20:00 +14°C° 0.2 mm 2 mps 750 mmHg 78%
21:00 +12°C° 0.2 mm 3 mps 750 mmHg 83%
22:00 +11°C° 0.2 mm 3 mps 750 mmHg 87%
23:00 +12°C° 1.3 mm 2 mps 750 mmHg 90%

Tomorrow, 16 May, Sunday

Time Temperature Precipitation Wind Pressure Humidity
00:00 +12°C° 1.3 mm 2 mps 750 mmHg 93%
01:00 +12°C° 1.3 mm 1 mps 750 mmHg 95%
02:00 +12°C° 0.3 mm 1 mps 750 mmHg 96%
03:00 +12°C° 0.3 mm 2 mps 750 mmHg 96%
04:00 +12°C° 0.3 mm 2 mps 750 mmHg 97%
05:00 +12°C° 0.6 mm 2 mps 750 mmHg 94%
06:00 +12°C° 0.6 mm 3 mps 750 mmHg 91%
07:00 +12°C° 0.6 mm 3 mps 750 mmHg 89%
08:00 +14°C° 0.1 mm 3 mps 750 mmHg 82%
09:00 +16°C° 0.1 mm 3 mps 750 mmHg 75%
10:00 +17°C° 0.1 mm 3 mps 750 mmHg 68%
11:00 +17°C° 0.3 mm 4 mps 750 mmHg 67%
12:00 +18°C° 0.3 mm 4 mps 750 mmHg 66%
13:00 +18°C° 0.3 mm 4 mps 749 mmHg 64%
14:00 +18°C° 0.1 mm 3 mps 749 mmHg 64%
15:00 +18°C° 0.1 mm 3 mps 749 mmHg 63%
16:00 +18°C° 0.1 mm 2 mps 749 mmHg 63%
17:00 +17°C° 0 mm 2 mps 749 mmHg 67%
18:00 +15°C° 0 mm 2 mps 749 mmHg 71%
19:00 +14°C° 0 mm 2 mps 749 mmHg 76%
20:00 +14°C° 0 mm 2 mps 749 mmHg 77%
21:00 +13°C° 0 mm 2 mps 749 mmHg 79%
22:00 +13°C° 0 mm 2 mps 749 mmHg 81%
23:00 +12°C° 0 mm 2 mps 749 mmHg 84%

Day after tomorrow, 17 May, Monday

Time Temperature Precipitation Wind Pressure Humidity
00:00 +10°C° 0 mm 2 mps 749 mmHg 87%
01:00 +9°C° 0 mm 2 mps 749 mmHg 90%
02:00 +9°C° 0 mm 2 mps 749 mmHg 91%
03:00 +9°C° 0 mm 2 mps 749 mmHg 92%
04:00 +8°C° 0 mm 2 mps 749 mmHg 93%
05:00 +10°C° 0 mm 3 mps 749 mmHg 87%
06:00 +11°C° 0 mm 3 mps 749 mmHg 82%
07:00 +13°C° 0 mm 3 mps 749 mmHg 77%
08:00 +14°C° 0.1 mm 3 mps 749 mmHg 73%
09:00 +15°C° 0.1 mm 4 mps 749 mmHg 69%
10:00 +17°C° 0.1 mm 4 mps 749 mmHg 65%
11:00 +17°C° 0.6 mm 4 mps 749 mmHg 66%
12:00 +17°C° 0.6 mm 4 mps 749 mmHg 68%
13:00 +17°C° 0.6 mm 4 mps 749 mmHg 69%
14:00 +17°C° 0.4 mm 3 mps 749 mmHg 71%
15:00 +17°C° 0.4 mm 3 mps 749 mmHg 72%
16:00 +17°C° 0.4 mm 3 mps 749 mmHg 73%
17:00 +16°C° 0.3 mm 2 mps 749 mmHg 77%
18:00 +15°C° 0.3 mm 2 mps 749 mmHg 81%
19:00 +14°C° 0.3 mm 2 mps 749 mmHg 85%
20:00 +13°C° 0 mm 2 mps 749 mmHg 88%
21:00 +13°C° 0 mm 2 mps 749 mmHg 90%
22:00 +12°C° 0 mm 2 mps 749 mmHg 92%
23:00 +10°C° 0 mm 3 mps 749 mmHg 93%

18 May, Tuesday

Time Temperature Precipitation Wind Pressure Humidity
00:00 +10°C° 0 mm 3 mps 749 mmHg 94%
01:00 +9°C° 0 mm 3 mps 749 mmHg 94%
02:00 +9°C° 0 mm 3 mps 749 mmHg 95%
03:00 +8°C° 0 mm 3 mps 749 mmHg 96%
04:00 +8°C° 0 mm 3 mps 749 mmHg 97%
05:00 +8°C° 0 mm 4 mps 749 mmHg 94%
06:00 +10°C° 0 mm 4 mps 749 mmHg 90%
07:00 +11°C° 0 mm 4 mps 749 mmHg 87%
08:00 +10°C° 0.1 mm 5 mps 750 mmHg 85%
09:00 +12°C° 0.1 mm 5 mps 750 mmHg 83%
10:00 +12°C° 0.1 mm 5 mps 750 mmHg 81%
11:00 +13°C° 0.1 mm 6 mps 750 mmHg 75%
12:00 +14°C° 0.1 mm 6 mps 750 mmHg 69%
13:00 +15°C° 0.1 mm 6 mps 750 mmHg 63%
14:00 +15°C° 0.1 mm 6 mps 750 mmHg 65%
15:00 +15°C° 0.1 mm 6 mps 750 mmHg 66%
16:00 +14°C° 0.1 mm 5 mps 751 mmHg 68%
17:00 +14°C° 0.1 mm 5 mps 751 mmHg 71%
18:00 +13°C° 0.1 mm 4 mps 751 mmHg 74%
19:00 +12°C° 0.1 mm 3 mps 751 mmHg 77%
20:00 +11°C° 0 mm 3 mps 752 mmHg 81%
21:00 +10°C° 0 mm 3 mps 752 mmHg 86%
22:00 +8°C° 0 mm 3 mps 752 mmHg 91%
23:00 +8°C° 0 mm 3 mps 753 mmHg 92%

19 May, Wednesday

Time Temperature Precipitation Wind Pressure Humidity
00:00 +8°C° 0 mm 3 mps 753 mmHg 93%
01:00 +7°C° 0 mm 3 mps 753 mmHg 94%
02:00 +7°C° 0 mm 3 mps 753 mmHg 94%
03:00 +7°C° 0 mm 3 mps 753 mmHg 94%
04:00 +5°C° 0 mm 3 mps 753 mmHg 94%
05:00 +7°C° 0 mm 4 mps 753 mmHg 88%
06:00 +8°C° 0 mm 5 mps 754 mmHg 82%
07:00 +10°C° 0 mm 5 mps 754 mmHg 75%
08:00 +10°C° 0.1 mm 5 mps 754 mmHg 75%
09:00 +11°C° 0.1 mm 6 mps 754 mmHg 74%
10:00 +11°C° 0.1 mm 6 mps 755 mmHg 73%
11:00 +13°C° 0.1 mm 5 mps 755 mmHg 68%
12:00 +14°C° 0.1 mm 5 mps 755 mmHg 64%
13:00 +14°C° 0.1 mm 5 mps 755 mmHg 59%
14:00 +14°C° 0.2 mm 5 mps 755 mmHg 61%
15:00 +14°C° 0.2 mm 5 mps 755 mmHg 63%
16:00 +14°C° 0.2 mm 5 mps 755 mmHg 64%
17:00 +13°C° 0.1 mm 4 mps 755 mmHg 70%
18:00 +12°C° 0.1 mm 3 mps 755 mmHg 75%
19:00 +12°C° 0.1 mm 2 mps 755 mmHg 80%
20:00 +10°C° 0 mm 2 mps 755 mmHg 83%
21:00 +9°C° 0 mm 3 mps 755 mmHg 86%
22:00 +8°C° 0 mm 3 mps 756 mmHg 88%
23:00 +7°C° 0 mm 3 mps 756 mmHg 90%

20 May, Thursday

Time Temperature Precipitation Wind Pressure Humidity
00:00 +7°C° 0 mm 3 mps 756 mmHg 92%
01:00 +5°C° 0 mm 3 mps 756 mmHg 94%
02:00 +5°C° 0 mm 3 mps 756 mmHg 95%
03:00 +5°C° 0 mm 3 mps 756 mmHg 96%
04:00 +5°C° 0 mm 3 mps 756 mmHg 97%
05:00 +6°C° 0 mm 4 mps 756 mmHg 91%
06:00 +8°C° 0 mm 4 mps 756 mmHg 85%
07:00 +9°C° 0 mm 5 mps 756 mmHg 79%
08:00 +12°C° 0 mm 5 mps 756 mmHg 71%
09:00 +13°C° 0 mm 6 mps 756 mmHg 63%
10:00 +14°C° 0 mm 6 mps 756 mmHg 55%
11:00 +14°C° 0 mm 6 mps 756 mmHg 54%
12:00 +15°C° 0 mm 6 mps 756 mmHg 53%
13:00 +15°C° 0 mm 5 mps 756 mmHg 53%
14:00 +15°C° 0.1 mm 5 mps 755 mmHg 54%
15:00 +15°C° 0.1 mm 5 mps 755 mmHg 55%
16:00 +15°C° 0.1 mm 5 mps 755 mmHg 56%
17:00 +14°C° 0.1 mm 4 mps 755 mmHg 62%
18:00 +13°C° 0.1 mm 3 mps 755 mmHg 67%
19:00 +13°C° 0.1 mm 2 mps 754 mmHg 73%
20:00 +10°C° 0 mm 3 mps 754 mmHg 77%
21:00 +9°C° 0 mm 3 mps 754 mmHg 81%
22:00 +8°C° 0 mm 3 mps 754 mmHg 86%
23:00 +8°C° 0 mm 3 mps 754 mmHg 88%
Show more